Regional Weather Roundup
Issued by NWS Upton, NY

Current Version | Previous Version | Text Only | Print | Product List | Glossary Off
Versions: 1 2 3 4 5 6 7 8 9 10 11 12 13 14 15 16 17 18 19 20 21 22 23 24 25 26 27
000 ASUS41 KOKX 271109 RWROKX REGIONAL WEATHER ROUNDUP NATIONAL WEATHER SERVICE NEW YORK NY 700 AM EDT SAT MAY 27 2017 NOTE: "FAIR" INDICATES FEW OR NO CLOUDS BELOW 12,000 FEET WITH NO SIGNIFICANT WEATHER AND/OR OBSTRUCTIONS TO VISIBILITY. NYZ071-072-176-178-NJZ106-104-271200- NEW YORK CITY METRO AREA CITY SKY/WX TMP DP RH WIND PRES REMARKS Central Park SUNNY 61 55 81 VRB5 29.90R Wall St Helipt MOSUNNY 63 54 72 VRB5 29.88S Bronx Bot Gard N/A 63 52 67 NW2 29.89R LaGuardia APRT MOSUNNY 63 54 72 NW8 29.87R Kennedy INTL MOSUNNY 64 56 75 NW10 29.88R Breezy Point N/A 59 N/A N/A W7 N/A Newark/Liberty PTSUNNY 61 56 83 CALM 29.87R Teterboro SUNNY 57 54 89 CALM 29.86R $$ NYZ177-179-078>081-271200- LONG ISLAND NEW YORK CITY SKY/WX TMP DP RH WIND PRES REMARKS Jones Beach N/A 61 N/A N/A N5 N/A Matinecock PT NOT AVBL Farmingdale SUNNY 59 54 83 N3 29.87R MacArthur/ISP PTSUNNY 58 56 93 NW7 29.86S Shirley CLOUDY 58 57 97 NW5 29.87R Mt Sinai Harb N/A 57 N/A N/A NW3 N/A Westhampton MOSUNNY 57 52 83 W5 29.88R East Hampton CLOUDY 58 52 81 NW3 29.86R Montauk N/A 58 52 80 NW6 29.86R $$ NYZ052-065-067-271200- HUDSON VALLEY CITY SKY/WX TMP DP RH WIND PRES REMARKS White Plains PTSUNNY 58 53 84 N6 29.87R Larchmont Harb N/A 57 N/A N/A NW3 N/A Croton O-T Hud N/A 57 N/A N/A CALM N/A Newburgh PTSUNNY 55 54 94 CALM 29.89R Montgomery CLOUDY 58 54 86 S3 29.87R Poughkeepsie CLOUDY 56 54 93 CALM 29.87R Albany MOSUNNY 55 51 86 N6 29.88R $$ NJZ001-105-106-008-010-013-015-019>022-104-271200- NEW JERSEY CITY SKY/WX TMP DP RH WIND PRES REMARKS Newark/Liberty PTSUNNY 61 56 83 CALM 29.87R Teterboro SUNNY 57 54 89 CALM 29.86R Caldwell MOSUNNY 62 54 74 CALM 29.88S Somerville SUNNY 59 56 89 CALM 29.86R Linden N/A 60 55 83 CALM 29.88S Perth Amboy N/A 59 N/A N/A W6 N/A Sussex CLOUDY 56 55 97 CALM 29.89R Andover N/A 55 54 96 CALM 29.89R Trenton SUNNY 60 53 77 W6 29.88R Millville SUNNY 59 57 93 W3 29.90S Atlantic City SUNNY 60 53 77 NW7 29.89 Wrightstown SUNNY 60 54 79 W6 29.87R Toms River SUNNY 60 55 83 W5 29.90R Belmar NOT AVBL $$ PAZ047>061-062-071-271200- EASTERN PENNSYLVANIA CITY SKY/WX TMP DP RH WIND PRES REMARKS Philadelphia MOSUNNY 62 51 67 NW9 29.89F Allentown SUNNY 57 52 83 SW5 29.90R Scranton CLOUDY 57 53 86 SW3 29.89S $$ CTZ002-004>006-009-010-012-RIZ004-006-007-MAZ004-011-015-271200- SOUTHERN NEW ENGLAND IN CT CITY SKY/WX TMP DP RH WIND PRES REMARKS Bradley INTL MOSUNNY 57 47 69 N9 29.85R Hartford CLOUDY 59 49 69 NW6 29.86R Danbury CLOUDY 55 54 96 SW5 29.89R Wtrbury/Oxford PTSUNNY 55 48 76 CALM 29.88R Bridgeport CLOUDY 61 53 75 NW3 29.87R Meriden CLOUDY 57 52 83 N3 29.87R New Haven MOSUNNY 57 54 89 NW6 29.87R Chester CLOUDY 55 54 94 CALM 29.86R Groton CLOUDY 58 51 78 NW6 29.84R Wilimantic CLOUDY 57 52 83 N7 29.85R IN RI CITY SKY/WX TMP DP RH WIND PRES REMARKS Providence PTSUNNY 55 53 93 NW6 29.83R Block Island CLOUDY 56 52 86 N7 29.85R Westerly CLOUDY 58 52 80 VRB5 29.85R IN MA CITY SKY/WX TMP DP RH WIND PRES REMARKS Boston CLOUDY 54 51 90 VRB3 29.83R Worcester SUNNY 51 44 77 NW9 29.84R Westfield CLOUDY 54 50 86 CALM 29.86R Provincetown CLOUDY 52 50 93 N5 29.83R Nantucket CLOUDY 55 51 86 N8 29.82R $$ ANZ330-335-338-340-345-350-353-355-271200- COASTAL MARINE OBSERVATIONS STATION/POSITION TIME SKY/WX TEMP WIND PRES VSBY WAVE AIR SEA DIR/SP/G HT/PER (UTC) (F) (DEG/KT/KT) (MB) (MI) (FT/S) NY HARB ENTRANCE 0950 59 57 270/ 8/ 10 1011.2 3/ 7 20 S FIRE ISLAND 1050 58 55 290/ 6/ 6 1011.0 4/ 8 GREAT SOUTH BAY NOT AVBL 23 SSW MONTAUK P 0950 57 54 1010.4 4/ 8 15 E BARNEGAT LI 1030 58 N/A 4/ 7 HUDSON CANYON 0950 56 55 310/ 6/ 6 1010.9 4/ 8 KINGS POINT 1048 62 59 30/ 7/ 8 1011.3 EXECUTION ROCKS 1045 61 N/A CENTRAL LI SOUND 1030 57 290/ 8/ 10 N/A 1 EASTERN LI SOUND NOT AVBL ROBBINS REEF 1048 61 270/ 6/ 8 1012.2 $$ >>>>>>>>>>>>>>>>>>>>>>>>>>>> KEY <<<<<<<<<<<<<<<<<<<<<<<<<<< > < > SKY/WX - Sky Condition/Present Weather < > TMP - Temperature in Fahrenheit < > DP - Dew Point in Fahrenheit < > RH - Relative Humidity in Percent < > WIND - Direction (from) and Speed in MPH < > PRES - Mean Sea Level Pressure (inches of Hg) < > WCI - Wind Chill Index < > VSB - VISIBILITY IN MILES < > HX - HEAT INDEX < > TC - TEMPERATURE IN CELSIUS < > VRB - VARIABLE WIND DIRECTION < > < >>>>>>>>>>>>>>>>>>>>>>>>>>>> KEY <<<<<<<<<<<<<<<<<<<<<<<<<<<

USA.gov is the U.S. government's official web portal to all federal, state and local government web resources and services.